{"data":{"norad_id":59360,"intl_designator":"2024-060N","name":"STARLINK-31549","alt_names":[],"object_type":"PAYLOAD","status":"ACTIVE","operator":null,"country":"US","launch_date":"2024-03-31","launch_site_code":"AFETR","launch_vehicle":null,"mission":null,"orbit_class":"UNKNOWN","rcs_meters":null,"size_class":null,"mass_kg":null,"dimensions":null,"purposes":["comms"],"wikipedia_slug":null,"has_3d_model":false,"image_url":null,"decayed_at":null,"tle_current":{"epoch":"2026-09-21T07:25:45.530400Z","epoch_age_seconds":92282,"freshness":"FRESH","line1":"1 59360U 24060N   26264.30955475  .00000374  00000+0  23126-4 0  9994","line2":"2 59360  43.0037 234.8188 0001156 280.0892  79.9829 15.27578737139984","mean_motion":15.27578737,"eccentricity":0.0001156,"inclination_deg":43.0037,"raan_deg":234.8188,"arg_perigee_deg":280.0892,"mean_anomaly_deg":79.9829,"bstar":2.3126e-5,"rev_number":13998,"period_min":94.26682665327,"perigee_km":482.25972436873,"apogee_km":483.84603146851,"semimajor_km":6861.1898779186,"source":"CELESTRAK","updated_at":"2026-09-22T09:00:48.905358Z"}}}